Content
SEND FEEDBACK

Canada Flag

ANCIENNE LORETTE, QUEBEC


Home > North America > Canada > Quebec
Elevation: 230 feet     Latitude: 46 48N     Longitude: 071 22W

WEATHER
 
SELECT A DAY
Number of Records: 215,370;   Date Range: 6/30/96 - 3/22/16
 
SHARE

PRINT THIS DATA

[ ← Previous Day ]
WEATHER ALMANAC - SEPTEMBER 20, 2013
[ Next Day → ]
[ °C ]   °F
Weather ElementAverageHighLow
Temperature54.3 °F59 °F (1:00 am)48.2 °F (9:00 pm)
Dewpoint37.7 °F55.4 °F (5:00 am) (7:00 pm)
Humidity86.1 %100 % (10:00 pm)73 % (2:00 pm)
Wind Speed9.9 mph16.1 mph (5:00 pm)
Wind Gust23 mph (12:37 pm)
Weather ElementAverage
Visibility12.6 mi
Wind DirectionSSW (205.2 °)

Weather ElementTotal
Precipitation---
Heating Degree Days11.4 (Base 65)
Growing Degree Days3.6 (Base 50)
Averaged from 38 records on September 20, 2013
WEATHER CONDITIONS BREAKOUT
WIND DIRECTION BREAKOUT
WEATHER BY HOUR - SEPTEMBER 20, 2013
[ °C ]   °F
Local TimeTemperatureDewpointHumidityBarometerVisibilityWind DirectionWind SpeedGust SpeedPrecipitationEventsConditions
1:00 AM59.0 °F53.6 °F82 %30.04 in15.0 miWSW (240°)2.3 mphOvercast
2:00 AM59.0 °F53.6 °F82 %30.03 in15.0 miSSE (150°)2.3 mphOvercast
3:00 AM59.0 °F53.6 °F82 %30.03 in15.0 miWNW (300°)2.3 mphMostly Cloudy
4:00 AM59.0 °F53.6 °F82 %30.03 in15.0 miWNW (300°)3.5 mphOvercast
5:00 AM57.2 °F55.4 °F94 %30.03 in15.0 miSW (220°)3.5 mphOvercast
5:00 AM57.0 °F55.0 °F92 %30.01 inWSW (240°)2.3 mph
6:00 AM59.0 °F55.4 °F88 %30.05 in15.0 miNW (320°)2.3 mphMostly Cloudy
7:00 AM59.0 °F55.4 °F88 %30.06 in15.0 miCalmMostly Cloudy
8:00 AM56.0 °F53.0 °F86 %30.06 inEast (90°)11.5 mph
8:00 AM55.4 °F51.8 °F88 %30.09 in8.0 miEast (80°)15.0 mphRainLight Rain
9:00 AM53.6 °F51.8 °F94 %30.10 in8.0 miENE (70°)6.9 mphRainLight Rain
9:30 AM53.6 °F0.0 °F10.0 miENE (60°)12.7 mphOvercast
10:00 AM55.4 °F51.8 °F88 %30.10 in8.0 miENE (70°)9.2 mphOvercast
10:48 AM55.4 °F0.0 °F12.0 miEast (90°)10.4 mphOvercast
11:00 AM55.0 °F52.0 °F84 %30.08 inENE (70°)8.1 mph
11:00 AM55.4 °F51.8 °F88 %30.10 in12.0 miEast (90°)13.8 mphMostly Cloudy
12:00 PM57.2 °F50.0 °F77 %30.09 in15.0 miEast (80°)13.8 mph20.7 mphMostly Cloudy
12:37 PM57.2 °F0.0 °F15.0 miEast (80°)15.0 mph23.0 mphMostly Cloudy
1:00 PM57.2 °F50.0 °F77 %30.08 in15.0 miEast (80°)13.8 mph21.9 mphMostly Cloudy
2:00 PM57.2 °F50.0 °F77 %30.06 in20.0 miENE (70°)11.5 mph18.4 mphMostly Cloudy
2:00 PM58.0 °F52.0 °F73 %30.03 inEast (80°)8.1 mph
3:00 PM57.2 °F50.0 °F77 %30.03 in25.0 miEast (80°)13.8 mph20.7 mphMostly Cloudy
4:00 PM55.4 °F50.0 °F82 %30.01 in25.0 miENE (60°)15.0 mph20.7 mphMostly Cloudy
5:00 PM54.0 °F49.0 °F79 %29.97 inEast (80°)9.2 mph
5:00 PM53.6 °F48.2 °F82 %30.00 in25.0 miENE (60°)16.1 mph23.0 mphMostly Cloudy
5:11 PM53.6 °F0.0 °F25.0 miEast (80°)11.5 mph18.4 mphMostly Cloudy
5:22 PM53.6 °F0.0 °F20.0 miEast (80°)12.7 mphMostly Cloudy
6:00 PM51.8 °F48.2 °F88 %29.99 in15.0 miEast (80°)11.5 mphMostly Cloudy
6:37 PM50.0 °F0.0 °F15.0 miENE (60°)10.4 mph20.7 mphOvercast
7:00 PM50.0 °F48.2 °F94 %29.98 in12.0 miNE (50°)13.8 mphOvercast
7:25 PM50.0 °F0.0 °F10.0 miNE (50°)12.7 mphOvercast
8:00 PM50.0 °F48.2 °F94 %29.99 in8.0 miENE (70°)8.1 mphOvercast
9:00 PM48.2 °F46.4 °F93 %29.98 in6.0 miENE (60°)15.0 mph20.7 mphOvercast
9:28 PM48.2 °F0.0 °F2.0 miENE (60°)13.8 mph19.6 mphOvercast
10:00 PM48.2 °F48.2 °F100 %29.95 in0.8 miENE (60°)12.7 mphOvercast
10:29 PM48.2 °F0.0 °F0.0 mi10.4 (2013°)0.00 inFog60
11:00 PM48.2 °F48.2 °F100 %29.94 in0.4 miENE (60°)10.4 mphFogFog
11:24 PM48.2 °F0.0 °F0.0 mi6.9 (2013°)0.00 inFog50
Hourly data recorded from CYQB, located miles away from Ancienne Lorette, Quebec




STORIES FROM OUR PARTNERS